Change the Weather History Date:

Monday, February 11, 2013

  Actual Average Record
Temperature  
Mean Temperature 44 °F -  
Max Temperature 56 °F 48 °F 69 °F (1965)
Min Temperature 32 °F 26 °F -4 °F (2011)
Degree Days  
Heating Degree Days 20    
Moisture  
Dew Point 19 °F    
Average Humidity 36    
Maximum Humidity 85    
Minimum Humidity 11    
Precipitation  
Precipitation 0.00 in - - ()
Sea Level Pressure  
Sea Level Pressure 30.04 in    
Wind  
Wind Speed 11 mph (WSW)    
Max Wind Speed 21 mph    
Max Gust Speed 28 mph    
Visibility 10 miles    
Events      
Averages and records for this station are not official NWS values.
T = Trace of Precipitation, MM = Missing Value Source: NWS Daily Summary

Daily Weather History Graph

Daily Weather History Graph

Search for Another Location

Airport or City:

Trip Planner

Search our weather history database for the weather conditions in past years. The results will help you decide how hot, cold, wet, or windy it might be!

Date:

Astronomy

Feb. 11, 2013 Rise Set
Actual Time 6:36 AM CST 5:19 PM CST
Civil Twilight 6:09 AM CST 5:46 PM CST
Nautical Twilight 5:39 AM CST 6:17 PM CST
Astronomical Twilight 5:09 AM CST 6:47 PM CST
Moon 7:04 AM CST (2/11) 7:11 PM CST (2/11)
Length of Visible Light 11h 36m
Length of Day
10h 43m
Waxing Crescent, 3% of the Moon is Illuminated
Feb 11
Waxing Crescent
Feb 17
First Quarter
Feb 25
Full
Mar 4
Last Quarter
Mar 11
New

Hourly Weather History & Observations

Time (CST) Temp. Windchill Dew Point Humidity Pressure Visibility Wind Dir Wind Speed Gust Speed Precip Events Conditions
12:15 AM 55.9 °F - 51.4 °F 85% 29.90 in 10.0 mi SSW 10.4 mph - N/A   Overcast
12:35 AM 55.9 °F - 51.4 °F 85% 29.90 in 10.0 mi SSW 9.2 mph - N/A   Overcast
12:55 AM 56.1 °F - 51.6 °F 85% 29.89 in 10.0 mi SSW 8.1 mph 16.1 mph N/A   Overcast
1:15 AM 56.3 °F - 51.4 °F 84% 29.90 in 10.0 mi SW 8.1 mph - N/A   Overcast
1:35 AM 56.3 °F - 51.1 °F 83% 29.90 in 10.0 mi SW 12.7 mph - N/A   Overcast
1:55 AM 56.5 °F - 48.7 °F 75% 29.91 in 10.0 mi SW 16.1 mph 27.6 mph N/A   Overcast
2:15 AM 56.5 °F - 45.7 °F 67% 29.91 in 10.0 mi WSW 10.4 mph 16.1 mph N/A   Overcast
2:35 AM 56.1 °F - 45.9 °F 68% 29.91 in 10.0 mi SW 9.2 mph - N/A   Mostly Cloudy
2:55 AM 55.6 °F - 46.0 °F 70% 29.92 in 10.0 mi SW 11.5 mph - N/A   Scattered Clouds
3:15 AM 55.4 °F - 41.0 °F 58% 29.92 in 10.0 mi WSW 11.5 mph - N/A   Scattered Clouds
3:35 AM 55.0 °F - 41.0 °F 59% 29.93 in 10.0 mi WSW 12.7 mph - N/A   Mostly Cloudy
3:55 AM 54.9 °F - 38.1 °F 53% 29.93 in 10.0 mi WSW 17.3 mph 21.9 mph N/A   Scattered Clouds
4:15 AM 54.1 °F - 33.6 °F 46% 29.93 in 10.0 mi WSW 13.8 mph 18.4 mph N/A   Clear
4:35 AM 53.2 °F - 31.5 °F 43% 29.94 in 10.0 mi SW 12.7 mph - N/A   Clear
4:55 AM 52.7 °F - 29.3 °F 41% 29.94 in 10.0 mi SW 10.4 mph - N/A   Clear
5:15 AM 52.0 °F - 27.5 °F 39% 29.95 in 10.0 mi SW 10.4 mph - N/A   Clear
5:35 AM 51.4 °F - 26.8 °F 38% 29.96 in 10.0 mi SW 11.5 mph - N/A   Clear
5:55 AM 50.7 °F - 26.4 °F 39% 29.97 in 10.0 mi WSW 15.0 mph - N/A   Clear
6:15 AM 50.7 °F - 25.3 °F 37% 29.98 in 10.0 mi WSW 10.4 mph - N/A   Clear
6:35 AM 50.4 °F - 23.5 °F 35% 29.99 in 10.0 mi West 12.7 mph 21.9 mph N/A   Clear
6:55 AM 49.8 °F - 21.4 °F 33% 30.00 in 10.0 mi WSW 12.7 mph 19.6 mph N/A   Clear
7:15 AM 49.5 °F - 20.7 °F 32% 30.01 in 10.0 mi West 11.5 mph 19.6 mph N/A   Clear
7:35 AM 49.3 °F - 20.1 °F 32% 30.03 in 10.0 mi WSW 11.5 mph - N/A   Clear
7:55 AM 48.7 °F - 19.4 °F 31% 30.03 in 10.0 mi West 13.8 mph - N/A   Clear
8:15 AM 48.6 °F - 18.0 °F 30% 30.03 in 10.0 mi WSW 12.7 mph 19.6 mph N/A   Clear
8:35 AM 48.4 °F - 16.2 °F 28% 30.04 in 10.0 mi West 11.5 mph 19.6 mph N/A   Clear
8:55 AM 48.7 °F - 13.6 °F 25% 30.04 in 10.0 mi West 11.5 mph 19.6 mph N/A   Clear
9:15 AM 49.1 °F - 13.1 °F 24% 30.06 in 10.0 mi WSW 19.6 mph 23.0 mph N/A   Clear
9:35 AM 48.4 °F - 12.9 °F 24% 30.07 in 10.0 mi WSW 12.7 mph - N/A   Clear
9:55 AM 48.2 °F - 13.8 °F 25% 30.09 in 10.0 mi WSW 16.1 mph - N/A   Clear
10:15 AM 48.2 °F - 13.1 °F 24% 30.09 in 10.0 mi WSW 17.3 mph 23.0 mph N/A   Clear
10:35 AM 47.7 °F - 12.2 °F 24% 30.09 in 10.0 mi WSW 11.5 mph 18.4 mph N/A   Clear
10:55 AM 47.7 °F - 10.2 °F 22% 30.08 in 10.0 mi WSW 12.7 mph 19.6 mph N/A   Clear
11:15 AM 47.7 °F - 8.2 °F 20% 30.08 in 10.0 mi WSW 20.7 mph 25.3 mph N/A   Clear
11:35 AM 47.7 °F - 5.9 °F 18% 30.09 in 10.0 mi WSW 15.0 mph - N/A   Clear
11:55 AM 47.5 °F - 7.9 °F 20% 30.09 in 10.0 mi WSW 15.0 mph 25.3 mph N/A   Clear
12:15 PM 47.8 °F - 5.2 °F 18% 30.08 in 10.0 mi WSW 12.7 mph 20.7 mph N/A   Clear
12:35 PM 48.4 °F - 3.4 °F 16% 30.08 in 10.0 mi WSW 15.0 mph - N/A   Clear
12:55 PM 48.6 °F - 2.7 °F 15% 30.07 in 10.0 mi WSW 13.8 mph 20.7 mph N/A   Clear
1:15 PM 48.4 °F - 3.2 °F 16% 30.09 in 10.0 mi WSW 16.1 mph - N/A   Clear
1:35 PM 48.7 °F - 2.8 °F 15% 30.08 in 10.0 mi WSW 12.7 mph 21.9 mph N/A   Clear
1:55 PM 49.3 °F - 3.4 °F 15% 30.08 in 10.0 mi WSW 16.1 mph 20.7 mph N/A   Clear
2:15 PM 48.7 °F - 1.2 °F 14% 30.08 in 10.0 mi WSW 12.7 mph 23.0 mph N/A   Clear
2:35 PM 48.9 °F - 1.0 °F 14% 30.08 in 10.0 mi WSW 15.0 mph - N/A   Clear
2:55 PM 49.6 °F - -0.0 °F 13% 30.08 in 10.0 mi WSW 17.3 mph 21.9 mph N/A   Clear
3:15 PM 50.4 °F - -1.7 °F 12% 30.08 in 10.0 mi WSW 15.0 mph 21.9 mph N/A   Clear
3:35 PM 50.2 °F - -2.6 °F 11% 30.08 in 10.0 mi WSW 16.1 mph 21.9 mph N/A   Clear
3:55 PM 50.2 °F - -1.1 °F 12% 30.08 in 10.0 mi WSW 15.0 mph - N/A   Clear
4:55 PM 48.2 °F - 4.5 °F 17% 30.07 in 10.0 mi WSW 8.1 mph - N/A   Clear
5:35 PM 44.4 °F 41.2 °F 10.4 °F 25% 30.07 in 10.0 mi SW 5.8 mph - N/A   Clear
5:55 PM 42.3 °F 39.4 °F 11.5 °F 29% 30.08 in 10.0 mi WSW 4.6 mph - N/A   Clear
6:15 PM 42.3 °F 39.4 °F 10.9 °F 28% 30.10 in 10.0 mi SW 4.6 mph - N/A   Clear
6:35 PM 41.5 °F - 11.5 °F 29% 30.10 in 10.0 mi Calm Calm - N/A   Clear
6:55 PM 41.2 °F 39.2 °F 11.8 °F 30% 30.11 in 10.0 mi SW 3.5 mph - N/A   Clear
7:15 PM 40.1 °F 38.0 °F 12.9 °F 33% 30.11 in 10.0 mi West 3.5 mph - N/A   Clear
7:55 PM 39.4 °F 37.2 °F 13.1 °F 34% 30.11 in 10.0 mi West 3.5 mph - N/A   Clear
8:15 PM 40.3 °F 38.2 °F 10.8 °F 30% 30.12 in 10.0 mi WNW 3.5 mph - N/A   Clear
8:35 PM 40.1 °F - 10.0 °F 29% 30.11 in 10.0 mi Calm Calm - N/A   Clear
8:55 PM 39.7 °F - 10.0 °F 30% 30.12 in 10.0 mi Calm Calm - N/A   Clear
9:15 PM 38.7 °F - 11.3 °F 33% 30.12 in 10.0 mi Calm Calm - N/A   Clear
9:35 PM 37.2 °F - 12.0 °F 36% 30.14 in 10.0 mi Calm Calm - N/A   Clear
9:55 PM 37.2 °F - 11.8 °F 35% 30.15 in 10.0 mi Calm Calm - N/A   Clear
10:15 PM 36.5 °F - 12.6 °F 37% 30.14 in 10.0 mi Calm Calm - N/A   Clear
10:35 PM 37.0 °F - 11.3 °F 35% 30.14 in 10.0 mi Calm Calm - N/A   Clear
10:55 PM 33.8 °F - 14.4 °F 45% 30.14 in 10.0 mi Calm Calm - N/A   Clear
11:15 PM 33.3 °F - 14.9 °F 47% 30.15 in 10.0 mi Calm Calm - N/A   Clear
11:35 PM 34.3 °F - 15.1 °F 45% 30.15 in 10.0 mi Calm Calm - N/A   Clear
11:55 PM 32.7 °F - 16.3 °F 51% 30.14 in 10.0 mi Calm Calm - N/A   Clear